Simultaneous Nadir Overpasses (SNOs) Predictions

Prediction of SNOs between FY3D and TERRA Satellite Orbit:

Table of predicted SNOs for the next 14.0 days since TLE Epoch: 5/28/2022
Index Date (FY3D) Time (FY3D) Lat,Lon (FY3D) SZA (FY3D ) Date (TERRA) Time (TERRA) Lat,Lon (TERRA) SZA (TERRA ) Distance(km) Time Diff (sec)
1 05/29/2022 01:11:09 72.18, 160.73 50.49 05/29/2022 01:12:16 72.08, 162.88 50.40 74.26 67
2 05/29/2022 02:01:40 -71.45, -30.59 130.25 05/29/2022 02:01:55 -71.47, -30.51 130.23 3.55 15
3 05/29/2022 02:52:24 71.34, 136.92 49.63 05/29/2022 02:51:23 71.32, 136.88 49.61 2.68 61
4 05/31/2022 16:38:07 -71.84, 109.63 130.24 05/31/2022 16:39:18 -71.70, 110.47 130.39 33.32 71
5 05/31/2022 17:28:45 71.42, -82.29 49.33 05/31/2022 17:28:48 71.43, -82.32 49.34 1.74 3
6 05/31/2022 18:19:29 -71.36, 85.13 130.74 05/31/2022 18:18:17 -71.36, 85.21 130.73 2.70 72
7 06/03/2022 08:05:05 71.51, 58.50 49.08 06/03/2022 08:06:12 71.53, 58.45 49.10 2.48 67
8 06/03/2022 08:55:49 -71.45,-134.08 130.99 06/03/2022 08:55:41 -71.46,-134.01 130.97 2.95 8
9 06/03/2022 09:46:25 70.92, 34.15 48.49 06/03/2022 09:45:15 70.97, 32.85 48.54 47.38 70
10 06/05/2022 23:32:10 -71.55, 6.69 131.18 06/05/2022 23:33:06 -71.54, 6.74 131.19 1.79 56
11 06/06/2022 00:22:54 71.43, 174.20 48.70 06/06/2022 00:22:33 71.43, 174.20 48.70 0.04 21
12 06/06/2022 01:13:23 -70.60, -17.06 132.14 06/06/2022 01:12:16 -70.61, -19.44 132.13 88.15 67
13 06/08/2022 14:59:15 71.54, -45.04 48.56 06/08/2022 14:59:57 71.55, -45.00 48.56 2.00 42
14 06/08/2022 15:49:58 -71.43, 122.47 131.56 06/08/2022 15:49:27 -71.43, 122.46 131.55 0.98 31



Historial Predications of SNOs between FY3D and TERRA
